Regional Weather Roundup
Issued by NWS Tiyan, Guam

Home | Current Version | Previous Version | Text Only | Print | Product List | Glossary On
Versions: 1 2 3 4 5 6 7 8 9 10 11 12 13 14 15 16 17 18 19 20 21 22 23 24 25 26 27 28
000
ASGM40 PGUM 270312
RWRGUM
WEATHER ROUNDUP FOR THE MARIANAS
NATIONAL WEATHER SERVICE TIYAN GU
100 PM CHST SAT MAY 27 2017

GUZ001>004-270400-
MARIANA ISLANDS-

CITY           SKY/WX    TMP DP  RH WIND       PRES   REMARKS
GUAM AIRPORT   PTSUNNY   88  75  66 E10G22    29.88F HX  97
ANDERSEN AFB   PTSUNNY   86  75  70 E14G22    29.89F HX  95
ROTA AIRPORT   MOSUNNY   88  77  70 E15       29.88F HX 100
TINIAN AP      MOSUNNY   88  75  66 E17       29.87F HX  97
SAIPAN AP      MOSUNNY   91  75  59 E18G24    29.88F HX 102

$$





USA.gov is the U.S. government's official web portal to all federal, state and local government web resources and services.